Location: Wellington
(41.3000°S, 174.7830°E)
Time: 20:09:45
(UTC+12:00)

Cosmos 2315 Rocket - Pass Details

Date: 24 January 2019
Orbit: 966 x 1002 km, 82.9° (Epoch: 21 April)

Event Time Altitude Azimuth Distance (km) Brightness Sun altitude
Rises 21:55:59 0° 188° (S) 3,745 7.8 -11.4°
Reaches altitude 10° 21:58:32 10° 188° (S) 2,784 7.1 -11.7°
Maximum altitude 22:04:57 89° 275° (W) 999 4.1 -12.7°
Drops below altitude 10° 22:11:13 10° 5° (N) 2,725 5.9 -13.6°
Enters shadow 22:11:50 - 5° (N) 2,956 6.1 -13.7°
